Kiripotib Landing Site

Jump to: basic info | weather | comments

Related pages: nearby airports | nearby navaids

Basic information (top)

Location: lon -23.328300, lat 17.946400, elev 4,475 ft / 1,364 m msl
Status: small_airport

Weather (top)

Current conditions for Hosea Kutako International Airport 57nm (106km) NNW (rec'd 2014/08/29 16:00Z):

FYWH 291600Z 11012KT CAVOK 16/M12 Q1025 NOSIG

Airport forecast for Hosea Kutako International Airport 57nm (106km) NNW (rec'd 2014/08/28 12:00Z):

TAF FYWH 281000Z 2812/2918 25015KT CAVOK 
      BECMG 2817/2819 14004KT 
      BECMG 2910/2912 12015KT

Latest comments (top)

More details: Once can also land in the nearby salt ... [read]

Kiripotib Landing Strip Details: GPS location: S 23° 19' 50'' E 17° ... [read]

More... (top)

See also NOTAMs and nearby airports and navaids, or visit the Kiripotib Landing Site page at the main OurAirports website..